Back to catalog

STARLINK-2492

AliveCommunicationsVLEO
NORAD 48149·PAYLOAD·🇺🇸 United States

Launched Apr 7, 2021 from Cape Canaveral Space Force Station

Loading…

Next Passes (next 24 hours)

TLE

FreshSource: CelesTrak SupGP

Epoch: Sep 15, 2026, 02:00 UTC

1 48149C 21027BK  26258.08381944  .00043154  00000+0  13873-2 0  2586
2 48149  53.1589 351.5504 0000904  94.3045 296.1833 15.31689452    17

Track STARLINK-2492 in real time with AllMySat

Download on the App Store